Wind from 032

Air temperature 17.2° C
Dewpoint 12.8° C

Last reported at 2014-Apr-24 08:46 UTC.
Time now 2014-Apr-24 09:28 UTC

Location: N 36°46' W 003°52'.
View on Google Maps.

See reports from other nearby stations

Tides Stations Pressure Air Temp Water Temp Dewpoint Dewpoint depression Visibility Wind Speed Wind Dir Waves Ship positions

  
sailing weather and tide predictions

DW8618 Nerja ES weather

date/time (UTC)wind fromknots sea level pressurealtimeterstation pressurevisibilityair tempwater tempwave heightnotes
2014-Apr-24 08:46 032 17.2
2014-Apr-24 08:30 031 1 gusting 5 17.2
2014-Apr-24 08:15 341 1 gusting 4 18.9
2014-Apr-24 08:01 341 19.4
2014-Apr-24 07:46 341 19.4
2014-Apr-24 07:30 341 18.3
2014-Apr-24 07:15 341 17.8
2014-Apr-24 07:01 341 0 gusting 2 16.7
2014-Apr-24 06:45 341 16.1
2014-Apr-24 06:30 341 15.6
2014-Apr-24 06:16 341 15.6
2014-Apr-24 06:01 341 15.0
2014-Apr-24 05:45 341 2 gusting 4 14.4
2014-Apr-24 05:30 341 2 gusting 4 14.4
2014-Apr-24 05:15 341 2 gusting 4 14.4
2014-Apr-24 05:01 341 0 gusting 2 15.0
2014-Apr-24 04:45 341 0 gusting 2 15.0
2014-Apr-24 04:31 341 2 gusting 3 15.6
2014-Apr-24 04:15 341 2 gusting 3 15.6
2014-Apr-24 04:01 341 16.1
2014-Apr-24 03:30 341 16.1
2014-Apr-24 03:15 341 16.1
2014-Apr-24 03:01 341 16.7
2014-Apr-24 02:45 341 16.7
2014-Apr-24 02:31 341 16.7
2014-Apr-24 02:15 341 1 gusting 3 16.7
2014-Apr-24 02:01 341 1 gusting 4 16.7
2014-Apr-24 01:46 341 2 gusting 4 16.7
2014-Apr-24 01:30 340 1 gusting 2 16.7
2014-Apr-24 01:16 340 2 gusting 3 17.2
2014-Apr-24 01:01 340 2 gusting 3 17.2
2014-Apr-24 00:45 340 1 gusting 3 17.2
2014-Apr-24 00:30 340 0 gusting 2 17.2
2014-Apr-24 00:15 340 2 gusting 5 16.7
2014-Apr-24 00:07 340 1 gusting 224 16.7
2014-Apr-23 23:46 340 2 gusting 4 17.2
2014-Apr-23 23:31 340 17.2
2014-Apr-23 23:01 340 0 gusting 3 17.2
2014-Apr-23 22:45 340 1 gusting 4 17.2
2014-Apr-23 22:31 340 3 gusting 5 17.2
2014-Apr-23 22:16 339 1 gusting 3 17.2
2014-Apr-23 22:01 339 1 gusting 3 17.2
2014-Apr-23 21:46 339 17.2
2014-Apr-23 21:31 339 17.2
2014-Apr-23 21:15 339 17.8
2014-Apr-23 21:01 339 17.8
2014-Apr-23 20:45 339 1 gusting 7 17.8
2014-Apr-23 20:30 329 4 gusting 6 18.3
2014-Apr-23 20:01 318 4 gusting 6 18.3
2014-Apr-23 19:46 231 0 gusting 2 17.8
2014-Apr-23 19:30 228 18.3
2014-Apr-23 19:15 228 18.9
2014-Apr-23 19:01 228 19.4
2014-Apr-23 18:45 228 19.4
2014-Apr-23 18:31 228 19.4
2014-Apr-23 18:16 228 19.4
2014-Apr-23 18:01 228 0 gusting 3 20.0
2014-Apr-23 17:46 226 20.0
2014-Apr-23 17:30 225 20.0
2014-Apr-23 17:16 242 20.0
2014-Apr-23 17:01 232 0 gusting 6 20.0
2014-Apr-23 16:45 232 1 gusting 6 20.6
2014-Apr-23 16:30 236 1 gusting 6 20.6
2014-Apr-23 16:15 210 2 gusting 6 20.0
2014-Apr-23 16:01 211 2 gusting 6 19.4
2014-Apr-23 15:46 199 2 gusting 6 20.0
2014-Apr-23 15:31 219 3 gusting 7 20.0
2014-Apr-23 15:15 214 1 gusting 7 20.0
2014-Apr-23 15:01 205 3 gusting 6 19.4
2014-Apr-23 14:45 188 4 gusting 7 19.4
2014-Apr-23 14:30 190 2 gusting 6 19.4
2014-Apr-23 14:16 188 2 gusting 7 19.4
2014-Apr-23 14:01 186 1 gusting 6 18.9
2014-Apr-23 13:45 191 4 gusting 6 18.9
2014-Apr-23 13:30 190 4 gusting 7 18.3
2014-Apr-23 13:15 188 4 gusting 7 18.3
2014-Apr-23 13:01 204 3 gusting 8 18.9
2014-Apr-23 12:45 225 1 gusting 5 18.9
2014-Apr-23 12:30 191 4 gusting 6 18.3
2014-Apr-23 12:15 190 1 gusting 5 18.3
2014-Apr-23 12:01 188 2 gusting 6 18.3
2014-Apr-23 11:45 191 1 gusting 6 18.9
2014-Apr-23 11:30 193 0 gusting 6 19.4
2014-Apr-23 11:15 185 0 gusting 4 18.9
2014-Apr-23 11:01 183 0 gusting 6 18.9
2014-Apr-23 10:45 181 0 gusting 4 18.9
2014-Apr-23 10:30 174 0 gusting 2 18.3
2014-Apr-23 10:15 173 0 gusting 3 18.3
2014-Apr-23 10:01 173 0 gusting 3 17.2
2014-Apr-23 09:45 173 2 gusting 6 16.7
2014-Apr-23 09:30 171 17.8
2014-Apr-23 09:16 169 0 gusting 4 17.2
2014-Apr-23 09:01 170 1 gusting 5 16.7
2014-Apr-23 08:46 163 0 gusting 5 17.8
2014-Apr-23 08:30 148 0 gusting 5 18.3
2014-Apr-23 08:15 123 0 gusting 4 18.3
2014-Apr-23 08:01 127 1 gusting 3 17.8
2014-Apr-23 07:45 123 0 gusting 4 17.2
2014-Apr-23 07:31 011 17.2
2014-Apr-23 07:16 005 17.2
2014-Apr-23 07:01 005 17.2
2014-Apr-23 06:45 005 16.1
2014-Apr-23 06:31 005 2 gusting 3 15.0
2014-Apr-23 06:15 005 2 gusting 4 14.4
2014-Apr-23 06:01 005 1 gusting 3 14.4
2014-Apr-23 05:45 005 14.4
2014-Apr-23 05:31 005 0 gusting 1 14.4
2014-Apr-23 05:15 005 14.4
2014-Apr-23 05:01 005 1 gusting 3 14.4
2014-Apr-23 04:45 005 0 gusting 2 14.4
2014-Apr-23 04:30 005 2 gusting 3 14.4
2014-Apr-23 04:16 005 14.4
2014-Apr-23 04:01 005 3 gusting 4 15.0
2014-Apr-23 03:46 011 1 gusting 2 15.0
2014-Apr-23 03:30 011 15.0
2014-Apr-23 03:16 010 15.0
2014-Apr-23 03:01 011 15.0
2014-Apr-23 02:45 350 4 gusting 5 15.0
2014-Apr-23 02:30 343 1 gusting 3 15.6
2014-Apr-23 02:16 342 15.6
2014-Apr-23 02:01 342 0 gusting 1 16.1
2014-Apr-23 01:46 342 16.1
2014-Apr-23 01:30 342 16.1
2014-Apr-23 01:15 342 2 gusting 3 16.1
2014-Apr-23 01:01 342 16.7
2014-Apr-23 00:45 342 16.7
2014-Apr-23 00:30 342 0 gusting 2 16.7
2014-Apr-23 00:15 342 17.2
2014-Apr-23 00:01 342 17.2
2014-Apr-22 23:45 342 17.2
2014-Apr-22 23:30 342 17.2
2014-Apr-22 23:15 341 17.2
2014-Apr-22 23:01 341 2 gusting 4 17.2
2014-Apr-22 22:45 316 2 gusting 3 17.2
2014-Apr-22 22:31 303 0 gusting 3 17.2
2014-Apr-22 22:15 176 17.8
2014-Apr-22 22:01 012 1 gusting 6 18.3
2014-Apr-22 21:45 314 4 gusting 6 17.8
2014-Apr-22 21:31 061 17.8
2014-Apr-22 21:16 061 0 gusting 4 18.3
2014-Apr-22 21:01 292 1 gusting 6 18.3
2014-Apr-22 20:45 312 3 gusting 6 18.9
2014-Apr-22 20:30 321 4 gusting 6 18.9
2014-Apr-22 20:15 335 3 gusting 9 19.4
2014-Apr-22 19:45 336 5 gusting 7 19.4
2014-Apr-22 19:31 346 2 gusting 8 20.0
2014-Apr-22 19:15 313 3 gusting 7 20.0
2014-Apr-22 19:01 325 4 gusting 12 20.6
2014-Apr-22 18:45 355 6 gusting 11 20.6
2014-Apr-22 18:30 315 6 gusting 13 20.0
2014-Apr-22 18:15 232 5 gusting 11 19.4
2014-Apr-22 18:01 323 7 gusting 13 19.4
2014-Apr-22 17:45 277 6 gusting 15 19.4
2014-Apr-22 17:31 181 5 gusting 14 20.0
2014-Apr-22 17:15 252 5 gusting 17 20.0
2014-Apr-22 16:45 294 8 gusting 19 20.6
2014-Apr-22 16:30 236 8 gusting 16 20.6
2014-Apr-22 16:15 215 11 gusting 19 21.1
2014-Apr-22 16:01 282 7 gusting 19 21.7
2014-Apr-22 15:45 265 10 gusting 17 21.7
2014-Apr-22 15:30 300 9 gusting 22 21.7
2014-Apr-22 15:16 270 11 gusting 19 21.1
2014-Apr-22 15:01 251 9 gusting 17 20.0
2014-Apr-22 14:46 246 9 gusting 22 18.9
2014-Apr-22 14:31 200 9 gusting 17 19.4
2014-Apr-22 14:15 215 10 gusting 19 23.3
2014-Apr-22 14:01 200 8 gusting 14 21.7
2014-Apr-22 13:45 204 7 gusting 15 22.2
2014-Apr-22 13:30 272 6 gusting 18 22.8
2014-Apr-22 13:16 259 6 gusting 14 23.3
2014-Apr-22 13:01 212 7 gusting 17 22.2
2014-Apr-22 12:45 250 8 gusting 13 22.2
2014-Apr-22 12:31 217 6 gusting 14 23.9
2014-Apr-22 12:15 306 5 gusting 9 23.9
2014-Apr-22 12:01 316 2 gusting 15 23.9
2014-Apr-22 11:46 326 6 gusting 16 23.3
2014-Apr-22 11:30 301 8 gusting 16 22.8
2014-Apr-22 11:15 327 4 gusting 14 23.3
2014-Apr-22 11:01 315 5 gusting 12 22.8
2014-Apr-22 10:45 307 6 gusting 16 22.8
2014-Apr-22 10:31 262 5 gusting 16 22.2
2014-Apr-22 10:16 299 6 gusting 13 22.2
2014-Apr-22 10:01 336 4 gusting 13 22.2
2014-Apr-22 09:45 316 5 gusting 13 21.7
2014-Apr-22 09:30 328 6 gusting 11 21.1
2014-Apr-22 09:16 027 5 gusting 11 21.1
2014-Apr-22 09:01 329 3 gusting 7 21.1